Regional Weather Roundup
Issued by NWS Northern Indiana

Home | Current Version | Previous Version | Text Only | Print | Product List | Glossary On
Versions: 1 2 3 4 5 6 7 8 9 10 11 12 13 14 15 16 17 18 19 20 21 22 23 24 25 26 27 28 29 30 31 32 33 34 35 36 37 38 39 40 41 42 43 44 45 46 47 48 49 50
000
ASUS43 KIWX 240810
RWRIWX

KIWX WEATHER ROUNDUP
NATIONAL WEATHER SERVICE NORTHERN INDIANA
400 AM EDT SAT JUN 24 2017

NOTE: "FAIR" INDICATES FEW OR NO CLOUDS BELOW 12,000 FEET WITH NO
SIGNIFICANT WEATHER AND/OR OBSTRUCTIONS TO VISIBILITY.

* THESE STATIONS ARE NOT UNDER NWS QUALITY CONTROL. THEY ALSO MAY NOT
  REPORT WEATHER SUCH AS PRECIPITATION OR FOG.

INZ001>027-240900-
NORTHERN INDIANA

CITY           SKY/WX    TMP DP  RH WIND       PRES   REMARKS
GARY*          PTCLDY    65  54  67 W6        29.88R
VALPARAISO     PTCLDY    62  56  80 W6        29.88R
MICHIGAN CITY* CLEAR     64  55  72 W7        29.87R
LAPORTE*       CLEAR     64  55  74 NW6       29.88R
KNOX*          CLEAR     61  52  72 W6        29.87R
SOUTH BEND     MOCLDY    62  56  80 W8        29.86R
GOSHEN         CLEAR     63  54  72 W9        29.84R
MONTICELLO*    CLEAR     62  57  84 W9        29.88R
LOGANSPORT*    PTCLDY    63  55  77 W7        29.89R
ROCHESTER*     PTCLDY    64  59  82 W6        29.87R
WARSAW*        CLEAR     61  54  77 W6        29.85R
AUBURN*        PTCLDY    61  54  77 W6        29.83R
FORT WAYNE     CLOUDY    64  56  75 W10       29.83R
HUNTINGTON*    CLOUDY    62  58  86 W3        29.84R
PERU/GRISSOM   PTCLDY    63  58  84 W8        29.86R
MARION*        CLOUDY    63  57  82 W10       29.87R

$$
INZ028>050-240900-
CENTRAL INDIANA

CITY           SKY/WX    TMP DP  RH WIND       PRES   REMARKS
LAFAYETTE      PTCLDY    61  57  87 W8        29.90R
KOKOMO*        PTCLDY    62  58  86 W9        29.89R
MUNCIE*        PTCLDY    65  59  81 W9        29.86R
INDIANAPOLIS   PTCLDY    64  58  80 W12       29.90R

$$
MIZ043>046-050>051-056>058-064>065-071>073-077>080-240900-
SOUTHWEST LOWER MICHIGAN

CITY           SKY/WX    TMP DP  RH WIND       PRES   REMARKS
BATTLE CREEK   PTCLDY    61  56  83 W8        29.82R
BENTON HARBOR  CLEAR     66  56  70 W12       29.84R
COLDWATER*     CLEAR     61  55  82 W7        29.82R
HILLSDALE*     CLEAR     59  52  77 W6        29.81R
HOLLAND        PTCLDY    64  55  72 NW9       29.82R
GRAND RAPIDS   CLEAR     62  57  83 W9        29.79R
KALAMAZOO      CLOUDY    63  54  72 W7        29.82R
STURGIS*       PTCLDY    62  55  78 NW5       29.82R
THREE RIVERS*  FAIR      60  54  82 W6        29.83R

$$
OHZ001>008-015>018-024>025-240900-
NORTHWEST OHIO

CITY           SKY/WX    TMP DP  RH WIND       PRES   REMARKS
WAUSEON*       FAIR      59  55  88 W8        29.79R
DEFIANCE       PTCLDY    58  53  84 CALM      29.81R
FINDLAY        CLEAR     61  53  75 SW7       29.80R
TOLEDO EXPRESS PTCLDY    59  55  87 W8        29.78S
TOLEDO METCALF CLEAR     62  56  80 SW6       29.78S

$$
AND FOR LAKE MICHIGAN COASTAL AND OPEN LAKE BUOY OBSERVATIONS

STATION/POSITION TEMP    WIND        PRES    VSBY  WAVE
                 AIR SEA DIR/SP/G                  HT/PER
                 (F)     (DEG/KT/KT) (MB)    (MI)  (FT/S)
CALUMET HARBOR    66     270/  4/  9 1011.2R
MICHIGAN CITY     67     270/ 19/ 21   N/A
BURNS HARBOR      67     280/ 12/ 14 1011.9R
SOUTH LAKE BUOY   63 62  310/ 16/ 19 1009.6F         2/ 4
4 MI NW BRIDGMAN  67 68  310/ 16/ 19 1010.8          3/ 4
MICHIGAN CITY     67 68  290/ 14/ 17   N/A           3/ 4

$$
&&




USA.gov is the U.S. government's official web portal to all federal, state and local government web resources and services.